CW0214 Weather Reports


Display with metric or nautical units.
time (UTC)temp
F
wind
direction
speed
MPH
gust
MPH
rain 1hr
in
rain 24hr
in
rain mn
in
humidity
%
barometer
mb
20260901014405 63 127 0.0 5.0 0.00 0.00 0.00 87 1019.1
20260901013904 63 123 1.0 12.0 0.00 0.00 0.00 87 1019.2
20260901013404 63 122 2.0 12.0 0.00 0.00 0.00 87 1019.2
20260901012904 63 125 2.0 10.0 0.00 0.00 0.00 87 1019.2
20260901012404 63 174 1.0 6.0 0.00 0.00 0.00 87 1019.3
20260901011905 63 154 2.0 9.0 0.00 0.00 0.00 87 1019.4
20260901011404 63 122 1.0 6.0 0.00 0.00 0.00 86 1019.3
20260901010904 63 131 1.0 6.0 0.00 0.00 0.00 86 1019.4
20260901010405 63 117 1.0 6.0 0.00 0.00 0.00 86 1019.4
20260901005904 63 99 1.0 6.0 0.00 0.00 0.00 86 1019.4
20260901004404 63 140 1.0 9.0 0.00 0.00 0.00 86 1019.7
20260901003905 63 149 1.0 10.0 0.00 0.00 0.00 86 1019.6
20260901003405 63 117 1.0 9.0 0.00 0.00 0.00 86 1019.5
20260901002905 63 194 0.0 5.0 0.00 0.00 0.00 86 1019.6
20260901002404 63 142 1.0 15.0 0.00 0.00 0.00 86 1019.5
20260901001905 63 124 3.0 15.0 0.00 0.00 0.00 86 1019.5
20260901001405 63 84 6.0 12.0 0.00 0.00 0.00 85 1019.6
20260901000905 63 160 4.0 12.0 0.00 0.00 0.00 85 1019.6
20260831235904 63 115 2.0 12.0 0.00 0.00 0.00 85 1019.6
20260831235404 64 129 1.0 8.0 0.00 0.00 0.00 85 1019.7
20260831234405 64 162 1.0 8.0 0.00 0.00 0.00 84 1019.7
20260831233904 64 149 2.0 9.0 0.00 0.00 0.00 84 1019.7
20260831233405 64 128 2.0 12.0 0.00 0.00 0.00 84 1019.7
20260831232905 64 131 2.0 9.0 0.00 0.00 0.00 84 1019.8
20260831232405 64 95 0.0 8.0 0.00 0.00 0.00 84 1019.8
20260831231904 64 139 3.0 12.0 0.00 0.00 0.00 84 1019.9
20260831230404 64 116 1.0 6.0 0.00 0.00 0.00 83 1019.9
20260831225404 64 117 2.0 10.0 0.00 0.00 0.00 82 1019.9
20260831224405 64 73 1.0 8.0 0.00 0.00 0.00 82 1020.0
20260831223904 64 141 1.0 7.0 0.00 0.00 0.00 82 1020.0
20260831223404 64 57 1.0 9.0 0.00 0.00 0.00 82 1020.0
20260831222905 64 71 2.0 12.0 0.00 0.00 0.00 82 1020.0
20260831221904 64 107 1.0 10.0 0.00 0.00 0.00 81 1020.0
20260831221404 64 137 3.0 18.0 0.00 0.00 0.00 81 1020.0
20260831220904 65 84 2.0 10.0 0.00 0.00 0.00 81 1020.0
20260831220404 65 105 2.0 16.0 0.00 0.00 0.00 81 1020.0
20260831215904 65 112 2.0 14.0 0.00 0.00 0.00 81 1020.0
20260831215404 65 82 5.0 12.0 0.00 0.00 0.00 80 1020.0
20260831214904 65 88 4.0 13.0 0.00 0.00 0.00 80 1020.0
20260831214405 65 83 1.0 15.0 0.00 0.00 0.00 79 1020.1
20260831213904 65 132 3.0 20.0 0.00 0.00 0.00 79 1020.0
20260831213404 65 115 4.0 12.0 0.00 0.00 0.00 79 1020.0
20260831212905 66 107 1.0 12.0 0.00 0.00 0.00 78 1020.0
20260831211904 66 135 3.0 10.0 0.00 0.00 0.00 77 1020.1
20260831211404 66 68 3.0 12.0 0.00 0.00 0.00 77 1020.0
20260831210908 66 36 0.0 6.0 0.00 0.00 0.00 76 1020.1
20260831210404 66 41 2.0 14.0 0.00 0.00 0.00 76 1020.0
20260831205905 66 127 3.0 13.0 0.00 0.00 0.00 76 1019.9
20260831205404 67 130 1.0 12.0 0.00 0.00 0.00 76 1019.9
20260831203905 67 101 3.0 10.0 0.00 0.00 0.00 74 1019.8
20260831202904 68 96 4.0 12.0 0.00 0.00 0.00 73 1019.8
20260831202405 68 111 3.0 14.0 0.00 0.00 0.00 73 1019.7
20260831201904 68 91 5.0 18.0 0.00 0.00 0.00 72 1019.7
20260831201404 68 139 2.0 10.0 0.00 0.00 0.00 71 1019.6
20260831200904 69 73 1.0 12.0 0.00 0.00 0.00 71 1019.6
20260831200404 69 111 1.0 10.0 0.00 0.00 0.00 70 1019.5
20260831195404 69 37 1.0 8.0 0.00 0.00 0.00 69 1019.6
20260831194904 69 170 1.0 14.0 0.00 0.00 0.00 68 1019.5
20260831194405 70 99 0.0 8.0 0.00 0.00 0.00 68 1019.4
20260831193904 70 139 1.0 12.0 0.00 0.00 0.00 66 1019.3
20260831193404 70 104 2.0 6.0 0.00 0.00 0.00 65 1019.3
20260831192905 71 98 2.0 10.0 0.00 0.00 0.00 64 1019.2
20260831192406 71 33 0.0 10.0 0.00 0.00 0.00 63 1019.1
20260831191906 71 120 3.0 12.0 0.00 0.00 0.00 62 1019.2
20260831190406 72 90 2.0 12.0 0.00 0.00 0.00 61 1019.1
20260831185905 73 128 1.0 9.0 0.00 0.00 0.00 61 1018.9
20260831185406 73 105 1.0 9.0 0.00 0.00 0.00 60 1018.8
20260831184905 74 125 3.0 15.0 0.00 0.00 0.00 60 1018.7
20260831184405 74 91 2.0 12.0 0.00 0.00 0.00 59 1018.7
20260831183906 74 137 2.0 12.0 0.00 0.00 0.00 58 1018.6
20260831183406 75 137 2.0 14.0 0.00 0.00 0.00 57 1018.7
20260831182405 76 89 1.0 13.0 0.00 0.00 0.00 56 1018.6
20260831181905 76 124 1.0 12.0 0.00 0.00 0.00 56 1018.6
20260831181405 76 110 3.0 16.0 0.00 0.00 0.00 55 1018.6
20260831180905 77 115 2.0 16.0 0.00 0.00 0.00 55 1018.6
20260831180406 77 80 0.0 10.0 0.00 0.00 0.00 54 1018.6
20260831175905 77 110 1.0 12.0 0.00 0.00 0.00 54 1018.6
20260831175406 78 117 2.0 10.0 0.00 0.00 0.00 53 1018.6
20260831174905 78 134 1.0 10.0 0.00 0.00 0.00 53 1018.6
20260831173905 78 101 1.0 9.0 0.00 0.00 0.00 52 1018.7
20260831173405 79 91 0.0 9.0 0.00 0.00 0.00 51 1018.6
20260831172905 79 104 3.0 20.0 0.00 0.00 0.00 50 1018.6
20260831172405 79 180 2.0 14.0 0.00 0.00 0.00 50 1018.7
20260831171405 80 107 1.0 10.0 0.00 0.00 0.00 49 1018.6
20260831170906 80 115 3.0 13.0 0.00 0.00 0.00 49 1018.7
20260831170405 80 94 1.0 10.0 0.00 0.00 0.00 49 1018.7
20260831165905 81 92 1.0 10.0 0.00 0.00 0.00 48 1018.6
20260831165405 81 56 2.0 10.0 0.00 0.00 0.00 47 1018.7
20260831164405 82 108 1.0 15.0 0.00 0.00 0.00 45 1018.6
20260831163405 82 123 1.0 8.0 0.00 0.00 0.00 43 1018.5
20260831162906 82 126 2.0 8.0 0.00 0.00 0.00 44 1018.5
20260831162405 82 47 2.0 12.0 0.00 0.00 0.00 43 1018.5
20260831161405 83 136 4.0 13.0 0.00 0.00 0.00 42 1018.5
20260831160405 83 118 2.0 10.0 0.00 0.00 0.00 39 1018.7
20260831155406 84 144 6.0 14.0 0.00 0.00 0.00 39 1018.8
20260831154905 84 100 1.0 10.0 0.00 0.00 0.00 40 1018.8
20260831154405 83 159 1.0 6.0 0.00 0.00 0.00 39 1018.7
20260831153905 84 94 1.0 7.0 0.00 0.00 0.00 38 1018.8
20260831153405 84 230 2.0 8.0 0.00 0.00 0.00 38 1018.8
20260831152905 84 69 1.0 7.0 0.00 0.00 0.00 38 1018.8
20260831152406 84 100 2.0 12.0 0.00 0.00 0.00 39 1018.8
20260831151405 84 0 1.0 8.0 0.00 0.00 0.00 37 1018.7
20260831150905 85 14 2.0 6.0 0.00 0.00 0.00 37 1018.7
20260831150405 85 82 5.0 15.0 0.00 0.00 0.00 38 1018.7
20260831145905 85 95 1.0 9.0 0.00 0.00 0.00 37 1018.8
20260831145405 85 103 2.0 12.0 0.00 0.00 0.00 37 1018.8
20260831144905 85 107 0.0 10.0 0.00 0.00 0.00 35 1018.8
20260831144405 85 343 1.0 10.0 0.00 0.00 0.00 35 1018.9
20260831143905 85 138 2.0 8.0 0.00 0.00 0.00 33 1018.9
20260831143406 85 76 2.0 8.0 0.00 0.00 0.00 34 1018.9
20260831142905 85 318 0.0 8.0 0.00 0.00 0.00 33 1018.9
20260831142405 85 88 1.0 7.0 0.00 0.00 0.00 32 1019.1
20260831141905 85 103 1.0 7.0 0.00 0.00 0.00 33 1019.1
20260831141405 85 79 6.0 14.0 0.00 0.00 0.00 32 1019.1
20260831140906 85 118 4.0 14.0 0.00 0.00 0.00 34 1019.2
20260831140405 85 73 1.0 9.0 0.00 0.00 0.00 35 1019.2
20260831135905 85 84 1.0 9.0 0.00 0.00 0.00 36 1019.1
20260831134905 85 122 2.0 8.0 0.00 0.00 0.00 37 1019.3
20260831134405 84 164 1.0 10.0 0.00 0.00 0.00 37 1019.2
20260831133905 84 106 3.0 12.0 0.00 0.00 0.00 38 1019.2
20260831133405 84 167 4.0 12.0 0.00 0.00 0.00 39 1019.3
20260831132905 84 115 3.0 14.0 0.00 0.00 0.00 39 1019.4
20260831132405 84 67 3.0 13.0 0.00 0.00 0.00 38 1019.4
20260831131906 84 125 1.0 12.0 0.00 0.00 0.00 39 1019.4
20260831125905 84 119 2.0 10.0 0.00 0.00 0.00 40 1019.5
20260831125405 84 117 2.0 8.0 0.00 0.00 0.00 38 1019.5
20260831124905 83 176 2.0 10.0 0.00 0.00 0.00 39 1019.6
20260831124405 83 208 2.0 8.0 0.00 0.00 0.00 38 1019.5
20260831123905 83 93 2.0 9.0 0.00 0.00 0.00 38 1019.7
20260831123405 83 112 2.0 7.0 0.00 0.00 0.00 38 1019.7
20260831122905 83 157 3.0 12.0 0.00 0.00 0.00 39 1019.7
20260831122405 83 147 2.0 12.0 0.00 0.00 0.00 39 1019.8
20260831121905 83 134 2.0 14.0 0.00 0.00 0.00 41 1019.9
20260831121405 83 172 4.0 10.0 0.00 0.00 0.00 41 1019.9
20260831120905 83 105 1.0 12.0 0.00 0.00 0.00 42 1020.0
20260831120405 82 321 0.0 5.0 0.00 0.00 0.00 42 1020.0
20260831115905 82 128 2.0 12.0 0.00 0.00 0.00 43 1020.0
20260831115405 82 107 0.0 3.0 0.00 0.00 0.00 43 1020.0
20260831114905 82 267 1.0 9.0 0.00 0.00 0.00 44 1020.1
20260831114405 82 107 2.0 9.0 0.00 0.00 0.00 44 1020.1
20260831113405 82 160 2.0 8.0 0.00 0.00 0.00 45 1020.3
20260831112905 81 52 0.0 3.0 0.00 0.00 0.00 46 1020.3
20260831112405 81 98 1.0 10.0 0.00 0.00 0.00 47 1020.4
20260831111905 80 110 2.0 12.0 0.00 0.00 0.00 47 1020.4
20260831111405 80 106 2.0 12.0 0.00 0.00 0.00 47 1020.4
20260831110905 81 105 1.0 12.0 0.00 0.00 0.00 47 1020.4
20260831110405 80 85 2.0 8.0 0.00 0.00 0.00 48 1020.4
20260831105905 80 167 0.0 9.0 0.00 0.00 0.00 47 1020.4
20260831105405 79 230 1.0 6.0 0.00 0.00 0.00 47 1020.4
20260831104405 79 134 1.0 6.0 0.00 0.00 0.00 51 1020.6
20260831103905 79 61 1.0 8.0 0.00 0.00 0.00 51 1020.6
20260831103405 78 118 2.0 7.0 0.00 0.00 0.00 52 1020.7
20260831102905 78 133 1.0 8.0 0.00 0.00 0.00 52 1020.7
20260831102405 78 98 1.0 7.0 0.00 0.00 0.00 53 1020.7
20260831101905 77 123 0.0 7.0 0.00 0.00 0.00 53 1020.7
20260831101405 77 142 1.0 8.0 0.00 0.00 0.00 54 1020.7
20260831100905 77 125 1.0 8.0 0.00 0.00 0.00 54 1020.7
20260831095905 77 143 0.0 7.0 0.00 0.00 0.00 55 1020.7
20260831095405 76 139 1.0 7.0 0.00 0.00 0.00 57 1020.7
20260831094905 75 157 0.0 6.0 0.00 0.00 0.00 59 1020.7
20260831094405 75 122 0.0 5.0 0.00 0.00 0.00 59 1020.7
20260831093905 75 144 0.0 5.0 0.00 0.00 0.00 59 1020.6
20260831092905 74 160 1.0 7.0 0.00 0.00 0.00 62 1020.6
20260831092405 73 102 2.0 7.0 0.00 0.00 0.00 63 1020.7
20260831091906 73 144 1.0 7.0 0.00 0.00 0.00 65 1020.7
20260831091405 72 133 1.0 9.0 0.00 0.00 0.00 65 1020.6
20260831090905 72 138 1.0 7.0 0.00 0.00 0.00 65 1020.7
20260831090405 71 16 1.0 8.0 0.00 0.00 0.00 66 1020.6
20260831085405 71 132 0.0 6.0 0.00 0.00 0.00 67 1020.8
20260831084905 71 92 1.0 7.0 0.00 0.00 0.00 67 1020.8
20260831084405 70 140 0.0 3.0 0.00 0.00 0.00 68 1020.9
20260831083905 70 101 2.0 12.0 0.00 0.00 0.00 69 1020.9
20260831083405 69 143 0.0 7.0 0.00 0.00 0.00 72 1020.9
20260831082904 69 103 0.0 5.0 0.00 0.00 0.00 72 1020.8
20260831081905 68 123 0.0 5.0 0.00 0.00 0.00 77 1020.7
20260831081405 67 134 1.0 7.0 0.00 0.00 0.00 77 1020.7
20260831080905 67 123 1.0 3.0 0.00 0.00 0.00 78 1020.8
20260831080405 66 140 1.0 5.0 0.00 0.00 0.00 80 1020.9
20260831075905 66 135 2.0 5.0 0.00 0.00 0.00 80 1020.9
20260831075405 65 136 1.0 7.0 0.00 0.00 0.00 81 1020.7
20260831074905 65 142 0.0 3.0 0.00 0.00 0.00 82 1020.6
20260831074405 65 129 2.0 9.0 0.00 0.00 0.00 83 1020.6
20260831073905 64 113 0.0 3.0 0.00 0.00 0.00 84 1020.5
20260831073404 64 113 0.0 0.0 0.00 0.00 0.00 85 1020.6
20260831072905 63 113 0.0 0.0 0.00 0.00 0.00 85 1020.5
20260831072405 63 113 0.0 0.0 0.00 0.00 0.00 86 1020.4
20260831071905 63 113 0.0 0.0 0.00 0.00 0.00 87 1020.3
20260831071405 63 113 0.0 3.0 0.00 0.00 0.00 88 1020.3
20260831070905 62 113 0.0 0.0 0.00 0.00 0.00 88 1020.2
20260831070405 62 135 0.0 2.0 0.00 0.00 0.00 88 1020.2
20260831065904 62 135 0.0 0.0 0.00 0.00 0.00 89 1020.1
20260831065405 62 135 0.0 1.0 0.00 0.00 0.00 89 1020.2
20260831064405 61 135 2.0 5.0 0.00 0.00 0.00 90 1020.2
20260831063405 61 135 0.0 2.0 0.00 0.00 0.00 90 1020.3
20260831062405 61 135 0.0 0.0 0.00 0.00 0.00 90 1020.2
20260831061904 61 135 0.0 0.0 0.00 0.00 0.00 90 1020.2
20260831061405 61 135 0.0 0.0 0.00 0.00 0.00 90 1020.2
20260831060905 61 135 0.0 2.0 0.00 0.00 0.00 90 1020.2
20260831060405 61 135 0.0 0.0 0.00 0.00 0.00 90 1020.1
20260831055904 61 135 0.0 0.0 0.00 0.00 0.00 89 1020.1
20260831055405 61 135 0.0 7.0 0.00 0.00 0.00 89 1020.1
20260831054905 61 98 1.0 5.0 0.00 0.00 0.00 89 1020.0
20260831054405 61 124 2.0 9.0 0.00 0.00 0.00 89 1020.0
20260831053905 61 140 2.0 9.0 0.00 0.00 0.00 89 1020.1
20260831052907 61 116 1.0 7.0 0.00 0.00 0.00 89 1020.0
20260831052405 61 146 2.0 8.0 0.00 0.00 0.00 89 1020.0
20260831051404 61 100 1.0 8.0 0.00 0.00 0.00 88 1019.9
20260831050905 61 104 0.0 7.0 0.00 0.00 0.00 88 1019.9
20260831050405 61 146 1.0 6.0 0.00 0.00 0.00 88 1020.0
20260831045904 61 109 0.0 8.0 0.00 0.00 0.00 88 1020.0
20260831044905 61 114 0.0 7.0 0.00 0.00 0.00 87 1020.0
20260831044405 61 131 1.0 3.0 0.00 0.00 0.00 87 1020.0
20260831043906 61 162 0.0 0.0 0.00 0.00 0.00 87 1020.0
20260831043405 61 170 0.0 0.0 0.00 0.00 0.00 87 1020.0
20260831042905 62 53 0.0 3.0 0.00 0.00 0.00 86 1020.0
20260831042404 62 109 1.0 6.0 0.00 0.00 0.00 86 1020.0
20260831041905 62 156 0.0 6.0 0.00 0.00 0.00 86 1020.0
20260831041405 62 86 0.0 6.0 0.00 0.00 0.00 86 1020.0
20260831040905 62 83 0.0 7.0 0.00 0.00 0.00 86 1020.0
20260831035404 62 125 4.0 12.0 0.00 0.00 0.00 85 1020.1
20260831034404 62 134 0.0 5.0 0.00 0.00 0.00 85 1020.1
20260831033905 62 120 1.0 6.0 0.00 0.00 0.00 85 1020.2
20260831033405 62 112 0.0 3.0 0.00 0.00 0.00 85 1020.1
20260831032405 62 123 1.0 9.0 0.00 0.00 0.00 84 1020.2
20260831031905 62 129 1.0 6.0 0.00 0.00 0.00 85 1020.2
20260831031404 62 134 0.0 0.0 0.00 0.00 0.00 84 1020.2
20260831030905 62 131 1.0 6.0 0.00 0.00 0.00 84 1020.2
20260831030405 62 134 0.0 6.0 0.00 0.00 0.00 84 1020.1
20260831025905 62 130 0.0 5.0 0.00 0.00 0.00 84 1020.3
20260831025405 62 156 1.0 7.0 0.00 0.00 0.00 84 1020.3
20260831024905 62 117 2.0 8.0 0.00 0.00 0.00 84 1020.4
20260831024404 62 148 0.0 8.0 0.00 0.00 0.00 84 1020.4
20260831023905 62 118 0.0 3.0 0.00 0.00 0.00 84 1020.4
20260831023405 62 144 1.0 5.0 0.00 0.00 0.00 84 1020.4
20260831022905 62 135 1.0 7.0 0.00 0.00 0.00 84 1020.4
20260831022404 62 90 0.0 1.0 0.00 0.00 0.00 84 1020.4
20260831021904 62 163 1.0 8.0 0.00 0.00 0.00 84 1020.4
20260831021405 62 164 0.0 3.0 0.00 0.00 0.00 84 1020.4
20260831020905 62 107 2.0 12.0 0.00 0.00 0.00 84 1020.3
20260831015905 62 142 1.0 6.0 0.00 0.00 0.00 84 1020.4
20260831015404 63 40 3.0 8.0 0.00 0.00 0.00 84 1020.4
20260831014905 63 106 1.0 3.0 0.00 0.00 0.00 84 1020.4